Regional Weather Roundup
Issued by NWS

Home | Current Version | Previous Version | Graphics & Text | Print | Product List | Glossary On
Versions: 1 2 3 4 5 6 7 8 9 10 11 12 13 14 15 16 17 18 19 20 21 22 23 24 25 26 27 28 29 30 31 32 33 34 35 36 37 38 39 40 41 42 43 44 45 46 47 48 49 50
000
ASUS43 KLOT 281100
RWRIL

ILLINOIS REGIONAL WEATHER ROUNDUP
NATIONAL WEATHER SERVICE CHICAGO/ROMEOVILLE IL
600 AM CDT MON JUL 28 2014

NOTE: "FAIR" INDICATES FEW OR NO CLOUDS BELOW 12,000 FEET WITH NO
SIGNIFICANT WEATHER AND/OR OBSTRUCTIONS TO VISIBILITY.

* THESE STATIONS ARE NOT UNDER NWS QUALITY CONTROL. THEY ALSO MAY NOT
  REPORT WEATHER SUCH AS PRECIPITATION OR FOG.

ILZ001-002-007-009-015-016-024-281200-
NORTHWEST ILLINOIS

CITY           SKY/WX    TMP DP  RH WIND       PRES   REMARKS
MOLINE         PTCLDY    62  53  72 N6        30.07R
STERLING*      CLEAR     57  52  82 N10G16    30.06R
$$

ILZ003-004-008-010-011-017-018-281200-
NORTH CENTRAL ILLINOIS

CITY           SKY/WX    TMP DP  RH WIND       PRES   REMARKS
ROCKFORD       PTCLDY    57  51  80 N9        30.07R
FREEPORT*      CLEAR     53  51  92 NW8       30.09R
$$

ILZ005-006-012>014-019>023-281200-
NORTHEAST ILLINOIS

CITY           SKY/WX    TMP DP  RH WIND       PRES   REMARKS
CHICAGO-OHARE  PTCLDY    60  47  61 NW12      29.99R
CHICAGO-MIDWAY PTCLDY    62  51  67 NW12      29.99R
AURORA         CLEAR     57  52  83 NW9       30.02R
LANSING*       CLEAR     60  50  68 NW10      29.98R
WAUKEGAN       CLEAR     55  49  80 NW8       29.99R
DUPAGE AIRPORT CLEAR     58  52  80 NW10      30.00R
WHEELING       CLEAR     59  49  69 NW10      30.01R
NORTHERLY ISL    N/A     61  52  72 NW10        N/A
$$

LMZ740>746-281200-
SOUTHERN LAKE MICHIGAN

STATION/POSITION SKY/WX   TEMP    WIND        PRES    VSBY  WAVE
                          AIR SEA DIR/SP/G                  HT/PER
                          (F)     (DEG/KT/KT) (MB)    (MI)  (FT/S)
SOUTHERN BUOY              59 59  340/ 23/ 27 1013.0R         8/ 7
WAUKEGAN HARBOR            58     330/ 10/ 16   N/A
HARRISON CRIB              62     330/ 22/ 26   N/A
BURNHAM HARBOR             61     320/  9/ 19   N/A
CALUMET HARBOR             61     320/  6/ 16 1013.7R
MICHIGAN CITY              62     330/ 24/ 28   N/A
MICHIGAN CITY 6N           62 68  350/ 21/ 27   N/A          10/ 8
ST. JOSEPH                 61 65  350/ 17/ 23   N/A           9/ 8
$$

ILZ025>027-034>036-040-047-049-050-058-095>099-281200-
WEST-CENTRAL ILLINOIS

CITY           SKY/WX    TMP DP  RH WIND       PRES   REMARKS
QUINCY         CLEAR     60  58  92 NW7       30.07R
GALESBURG*     PTCLDY    58  55  89 N5        30.07R
MACOMB*        CLEAR     60  59  97 N6        30.09R
$$

ILZ028>032-037-038-041>044-048-051>054-059>061-281200-
CENTRAL ILLINOIS

CITY           SKY/WX    TMP DP  RH WIND       PRES   REMARKS
PONTIAC        CLEAR     57  55  94 NW5       30.02R
DECATUR        PTCLDY    63  60  90 N9        30.01R
PEORIA         PTCLDY    63  58  83 N3        30.04R
SPRINGFIELD    CLEAR     63  61  93 NW8       30.04R
TAYLORVILLE    NOT AVBL
$$

ILZ033-039-045-046-055>057-062-063-281200-
EAST-CENTRAL ILLINOIS

CITY           SKY/WX    TMP DP  RH WIND       PRES   REMARKS
CHAMPAIGN      CLEAR     59  58  96 NW7       30.00R
MATTOON        CLEAR     59  57  93 NW8       29.99R
$$

ILZ079-100>102-281200-
SOUTHWEST ILLINOIS

CITY           SKY/WX    TMP DP  RH WIND       PRES   REMARKS
BELLEVILLE     CLEAR     65  61  84 NW8       30.03R
CAHOKIA*       CLEAR     68  60  75 N10       30.04R
SPARTA*        CLEAR     63  59  88 NW3       30.04R
$$

ILZ064>066-069>071-074>076-080>082-084>086-088>090-092>094-281200-
SOUTH-CENTRAL ILLINOIS

CITY           SKY/WX    TMP DP  RH WIND       PRES   REMARKS
CARBONDALE     CLEAR     62  57  83 NW5       30.02R
MT. VERNON     CLEAR     64  55  72 CALM      30.01R
SALEM*         CLEAR    N/A N/A N/A N8        30.01R
$$

ILZ067-068-072-073-078-083-087-091-281200-
SOUTHEAST ILLINOIS

CITY           SKY/WX    TMP DP  RH WIND       PRES   REMARKS
LAWRENCEVILLE  CLEAR     64  60  87 N9        29.97R
HARRISBURG*    CLEAR     61  60  96 CALM      30.02R
ROBINSON*      CLEAR     64  61  93 NW7       29.98R
$$

ABBREVIATIONS USED IN REMARKS
   TC - TEMPERATURE IN CELSIUS
  WCI - WIND CHILL INDEX
   HX - HEAT INDEX
  VSB - VISIBILITY
$$



USA.gov is the U.S. government's official web portal to all federal, state and local government web resources and services.